Weather History for Ashtabula, OH

Change the Weather History Date:

Thursday, June 27, 2013

  Actual Average (KYNG) Record (KYNG)
Temperature  
Mean Temperature 72 °F 69 °F  
Max Temperature 78 °F 80 °F 96 °F (1944)
Min Temperature 66 °F 58 °F 42 °F (1897)
Degree Days  
Heating Degree Days 0 1  
Month to date heating degree days 66  
Since 1 June heating degree days 66  
Since 1 July heating degree days 6346  
Cooling Degree Days 6 5  
Month to date cooling degree days 93  
Year to date cooling degree days 132  
Since 1 June cooling degree days 93  
Growing Degree Days 22 (Base 50)    
Moisture  
Dew Point 65 °F    
Average Humidity 85    
Maximum Humidity 94    
Minimum Humidity 64    
Precipitation  
Precipitation 0.73 in 0.13 in 2.04 in (1989)
Month to date precipitation 3.49  
Year to date precipitation 18.28  
Snow  
Snow 0.00 in 0.00 in - ()
Month to date snowfall 0.0  
Since 1 June snowfall 0.0  
Since 1 July snowfall 62.7  
Snow Depth -    
Sea Level Pressure  
Sea Level Pressure 29.74 in    
Wind  
Wind Speed 3 mph (North)    
Max Wind Speed 9 mph    
Max Gust Speed -    
Visibility 6 miles    
Events Rain    
T = Trace of Precipitation, MM = Missing Value Source: NWS Daily Summary

Daily Weather History Graph

Daily Weather History Graph

Search for Another Location

Airport:

Trip Planner

Search our weather history database for the weather conditions in past years. The results will help you decide how hot, cold, wet, or windy it might be!

Date:

Astronomy

Jun. 27, 2013 Rise Set
Actual Time 5:50 AM EDT 9:01 PM EDT
Civil Twilight 5:15 AM EDT 9:35 PM EDT
Nautical Twilight 4:31 AM EDT 10:19 PM EDT
Astronomical Twilight 3:38 AM EDT 11:12 PM EDT
Moon 11:52 PM EDT (6/27) 10:53 AM EDT (6/27)
Length of Visible Light 16h 20m
Length of Day
15h 11m
Waning Gibbous, 76% of the Moon is Illuminated
Jun 27
Waning Gibbous
Jun 30
Last Quarter
Jul 8
New
Jul 15
First Quarter
Jul 22
Full

Hourly Weather History & Observations

Time (EDT) Temp. Dew Point Humidity Pressure Visibility Wind Dir Wind Speed Gust Speed Precip Events Conditions
12:53 AM 71.1 °F 66.0 °F 84% 29.80 in 10.0 mi SSE 3.5 mph - N/A   Mostly Cloudy
1:53 AM 70.0 °F 66.0 °F 87% 29.78 in 10.0 mi Calm Calm - N/A   Clear
2:53 AM 66.9 °F 64.0 °F 90% 29.77 in 5.0 mi Calm Calm - N/A   Clear
3:53 AM 69.1 °F 64.9 °F 87% 29.77 in 9.0 mi South 3.5 mph - N/A   Scattered Clouds
4:53 AM 69.1 °F 66.0 °F 90% 29.76 in 8.0 mi South 3.5 mph - N/A   Mostly Cloudy
5:53 AM 69.1 °F 66.0 °F 90% 29.75 in 7.0 mi Calm Calm - 0.01 in   Overcast
6:42 AM 69.8 °F 66.2 °F 88% 29.77 in 4.0 mi Calm Calm - N/A   Overcast
6:53 AM 69.1 °F 66.0 °F 90% 29.75 in 4.0 mi Calm Calm - N/A   Overcast
7:26 AM 69.8 °F 66.2 °F 88% 29.76 in 2.5 mi Calm Calm - 0.01 in Rain Light Rain
7:53 AM 70.0 °F 66.0 °F 87% 29.75 in 2.5 mi Calm Calm - 0.03 in Rain Light Rain
8:19 AM 69.8 °F 66.2 °F 88% 29.76 in 3.0 mi Calm Calm - 0.02 in Rain Light Rain
8:36 AM 69.8 °F 66.2 °F 88% 29.77 in 2.5 mi Calm Calm - 0.05 in Rain Rain
8:53 AM 70.0 °F 66.0 °F 87% 29.74 in 3.0 mi Calm Calm - 0.07 in Rain Light Rain
9:06 AM 69.8 °F 66.2 °F 88% 29.76 in 5.0 mi Calm Calm - 0.00 in Rain Light Rain
9:08 AM 69.8 °F 66.2 °F 88% 29.76 in 6.0 mi Calm Calm - 0.00 in Rain Light Rain
9:22 AM 69.8 °F 66.2 °F 88% 29.76 in 7.0 mi NNW 4.6 mph - 0.01 in Rain Light Rain
9:53 AM 69.1 °F 66.0 °F 90% 29.73 in 7.0 mi North 6.9 mph - 0.02 in Rain Light Rain
10:08 AM 69.8 °F 64.4 °F 83% 29.75 in 7.0 mi North 8.1 mph - 0.00 in Rain Light Rain
10:29 AM 68.0 °F 64.4 °F 88% 29.75 in 2.5 mi North 6.9 mph - 0.08 in Rain Heavy Rain
10:39 AM 68.0 °F 64.4 °F 88% 29.75 in 2.0 mi North 8.1 mph - 0.14 in Rain Heavy Rain
10:42 AM 68.0 °F 64.4 °F 88% 29.75 in 1.8 mi North 8.1 mph - 0.15 in Rain Heavy Rain
10:53 AM 68.0 °F 64.0 °F 87% 29.74 in 2.0 mi NNE 8.1 mph - 0.21 in Rain Heavy Rain
10:58 AM 68.0 °F 64.4 °F 88% 29.75 in 1.8 mi North 9.2 mph - 0.03 in Rain Heavy Rain
11:09 AM 68.0 °F 64.4 °F 88% 29.75 in 2.5 mi North 8.1 mph - 0.07 in Rain Rain
11:51 AM 68.0 °F 64.4 °F 88% 29.76 in 3.0 mi NNE 6.9 mph - 0.27 in Rain Rain
11:53 AM 68.0 °F 64.0 °F 87% 29.74 in 3.0 mi NNE 9.2 mph - 0.27 in Rain Rain
12:16 PM 66.2 °F 64.4 °F 94% 29.76 in 2.5 mi NNE 6.9 mph - 0.07 in Rain Rain
12:25 PM 66.2 °F 64.4 °F 94% 29.75 in 4.0 mi NNE 8.1 mph - 0.08 in Rain Light Rain
12:53 PM 68.0 °F 64.0 °F 87% 29.73 in 10.0 mi Variable 5.8 mph - 0.09 in   Overcast
1:14 PM 69.8 °F 64.4 °F 83% 29.74 in 10.0 mi NE 5.8 mph - 0.00 in Rain Light Rain
1:50 PM 69.8 °F 64.4 °F 83% 29.75 in 10.0 mi NNW 4.6 mph - 0.00 in Rain Light Rain
1:53 PM 69.1 °F 64.9 °F 87% 29.73 in 9.0 mi NNW 5.8 mph - 0.00 in Rain Light Rain
2:25 PM 69.8 °F 66.2 °F 88% 29.73 in 10.0 mi Variable 3.5 mph - 0.02 in Rain Light Rain
2:53 PM 71.1 °F 66.0 °F 84% 29.71 in 10.0 mi NNW 3.5 mph - 0.02 in   Overcast
3:22 PM 73.4 °F 66.2 °F 78% 29.71 in 10.0 mi Calm Calm - N/A   Mostly Cloudy
3:53 PM 75.0 °F 66.9 °F 76% 29.68 in 10.0 mi East 6.9 mph - N/A   Scattered Clouds
4:53 PM 77.0 °F 64.0 °F 64% 29.69 in 10.0 mi Calm Calm - N/A   Clear
5:28 PM 77.0 °F 64.4 °F 65% 29.71 in 10.0 mi Variable 4.6 mph - N/A   Mostly Cloudy
5:53 PM 73.9 °F 66.0 °F 76% 29.69 in 10.0 mi Variable 5.8 mph - N/A   Overcast
6:12 PM 73.4 °F 66.2 °F 78% 29.70 in 10.0 mi NNE 4.6 mph - N/A   Mostly Cloudy
6:53 PM 75.0 °F 66.0 °F 73% 29.70 in 10.0 mi NNW 6.9 mph - N/A   Clear
7:53 PM 70.0 °F 64.0 °F 81% 29.70 in 10.0 mi North 4.6 mph - N/A   Clear
8:53 PM 69.1 °F 64.0 °F 84% 29.69 in 10.0 mi Calm Calm - N/A   Clear
9:53 PM 66.9 °F 64.0 °F 90% 29.68 in 9.0 mi Calm Calm - N/A   Clear
10:53 PM 66.9 °F 64.0 °F 90% 29.68 in 8.0 mi Calm Calm - 0.01 in   Clear
11:53 PM 66.9 °F 64.0 °F 90% 29.66 in 7.0 mi Calm Calm - N/A   Partly Cloudy